www.pogodaiklimat.ru

Погода и климат >> Архив погоды >> Австралия >> Западная Австралия >> Джайлс


ПОГОДА в Джайлсе

  • Прогноз погоды в Джайлсе
  • Монитор погоды в Джайлсе

АРХИВ ПОГОДЫ в Джайлсе

Время (UTC), дата Ветер
(напр.,м/с)
 
Видим.   Явления Облачность Т
(С)
Тd
(С)
f
(%)
Тe
(С)
Тes
(С)
Комфортность P
(гПа)
Po
(гПа)
Тmin
(С)
Tmax
(С)
R
(мм)
R24
(мм)
S
(см)
19 19.03 В 7 40 км 1/0
[Ac As]
+28.8 +0.6 16 +26 +26 жарко 1008.7 943.0
20 19.03 В 6 н/о н/о +28.5 +1.1 17 +26 +26 жарко 1009.1 943.4
21 19.03 В 6 н/о н/о +28.8 +0.6 16 +26 +26 жарко 1009.6 943.8
22 19.03 В 6 40 км 3/0
[Ac As]
+28.6 +1.3 17 +26 +26 жарко 1009.9 944.1
23 19.03 В 6 н/о н/о +29.9 +0.8 15 +27 +27 жарко 1010.5 944.7
00 20.03 СВ 8 н/о н/о +32.6 +0.4 13 +29 +29 жарко 1011.1 945.2
01 20.03 СВ 8 40 км 1/0
[Ac trans Ci fib]
+34.3 +1.0 12 +31 +31 жарко 1011.3 945.4 +28.3
02 20.03 СВ 7 н/о н/о +35.8 +0.7 11 +32 +32 жарко 1011.1 945.2
03 20.03 СВ 7 н/о н/о +37.8 -1.4 8 +34 +34 очень
жарко
1010.4 944.6
04 20.03 С 6 40 км 4/0
[Ac cast Cs]
+38.3 -2.4 8 +34 +34 очень
жарко
1009.5 943.7
05 20.03 СВ 4 н/о н/о +38.6 -2.4 7 +34 +34 очень
жарко
1008.5 942.8
06 20.03 В 4 н/о н/о +38.3 -1.8 8 +34 +34 очень
жарко
1007.9 942.2
07 20.03 ЮВ 4 н/о н/о +38.3 -1.3 8 +34 +34 очень
жарко
1007.4 941.8
08 20.03 СВ 6 н/о н/о +38.2 -2.1 8 +34 +34 очень
жарко
1007.7 942.0
09 20.03 В 4 н/о н/о +37.4 -1.1 9 +34 +34 очень
жарко
1007.9 942.2
10 20.03 В 3 40 км 3/0
[Ac cast]
+34.5 -1.1 10 +31 +31 жарко 1008.5 942.8
11 20.03 В 4 н/о н/о +33.0 +0.6 13 +30 +30 жарко 1009.1 943.4
12 20.03 В 4 н/о н/о +32.6 +0.4 13 +29 +29 жарко 1009.7 943.9
13 20.03 В 4 н/о н/о +32.3 +0.1 13 +29 +29 жарко 1010.0 944.2 +39.7
14 20.03 В 5 н/о н/о +32.0 +0.2 13 +29 +29 жарко 1009.7 943.9
15 20.03 В 5 н/о н/о +32.0 +0.6 13 +29 +29 жарко 1009.3 943.5
16 20.03 В 6 н/о н/о +32.2 +0.3 13 +29 +29 жарко 1008.6 942.9
17 20.03 СВ 6 н/о н/о +31.7 +0.7 14 +29 +29 жарко 1008.3 942.6
18 20.03 В 6 н/о н/о +30.8 +1.3 15 +28 +28 жарко 1008.2 942.5
19 20.03 В 6 40 км 3/0
[Ci sp]
+30.4 +1.2 15 +28 +28 жарко 1008.1 942.4
20 20.03 В 6 н/о н/о +30.2 +1.9 16 +28 +28 жарко 1008.2 942.5
21 20.03 СВ 7 н/о н/о +30.2 +2.3 17 +28 +28 жарко 1008.6 942.9
22 20.03 СВ 7 40 км 1/0
[Ci sp]
+30.2 +3.7 19 +28 +28 жарко 1009.1 943.4
23 20.03 СВ 8 н/о н/о +32.2 +3.0 16 +30 +30 жарко 1010.0 944.2
00 21.03 СВ 9 н/о н/о +33.6 +2.8 14 +31 +31 жарко 1010.5 944.7
01 21.03 СВ 8 40 км 5/0
[Ci sp]
+35.2 +3.2 14 +32 +32 жарко 1010.6 944.8 +29.5
02 21.03 СВ 8 н/о н/о +35.8 +2.3 12 +32 +32 жарко 1010.1 944.3
03 21.03 СВ 7 н/о н/о +37.5 +1.8 11 +34 +34 очень
жарко
1009.4 943.6
04 21.03 С 5 40 км 3/1
[Cu hum Ci fib]
+39.7 +0.1 8 +36 +36 очень
жарко
1008.5 942.8
05 21.03 С 5 н/о н/о +39.0 -1.1 8 +35 +35 очень
жарко
1007.7 942.0
06 21.03 В 5 н/о н/о +39.1 -1.7 8 +35 +35 очень
жарко
1006.7 941.1
07 21.03 В 4 40 км 1/1
[Cu hum Ci fib]
+39.1 -1.2 8 +35 +35 очень
жарко
1006.5 940.9
08 21.03 В 3 н/о н/о +39.3 -2.1 7 +35 +35 очень
жарко
1006.4 940.8
09 21.03 В 3 н/о н/о +38.2 -0.6 9 +34 +34 очень
жарко
1006.3 940.7
10 21.03 СВ 3 40 км 1/0
[Ac trans Ci fib]
+35.3 +2.4 13 +32 +32 жарко 1007.0 941.4
11 21.03 В 3 н/о н/о +33.7 +1.6 13 +31 +31 жарко 1007.5 941.9
12 21.03 В 4 н/о н/о +33.3 +1.0 13 +30 +30 жарко 1007.9 942.2
13 21.03 В 4 н/о н/о +32.4 +1.2 14 +29 +29 жарко 1008.2 942.5 +40.2
14 21.03 СВ 5 н/о н/о +32.9 +1.2 13 +30 +30 жарко 1008.0 942.3
15 21.03 СВ 6 н/о н/о +33.2 +2.0 14 +30 +30 жарко 1007.5 941.9
16 21.03 СВ 7 н/о н/о +32.4 +2.4 15 +30 +30 жарко 1007.3 941.7
17 21.03 СВ 8 н/о н/о +32.4 +2.4 15 +30 +30 жарко 1006.8 941.2
18 21.03 СВ 8 н/о н/о +31.7 +2.7 16 +29 +29 жарко 1006.5 940.9
22 21.03 СВ 9 40 км 9/0
[Ac cast Cs]
+31.0 +3.3 17 +29 +29 жарко 1008.2 942.5
23 21.03 СВ 6 н/о н/о +31.6 +3.5 17 +29 +29 жарко 1008.6 942.9
01 22.03 СВ 8 40 км 4/0
[Ac trans Ci sp]
+35.3 +1.9 12 +32 +32 жарко 1009.0 943.3 +30.4
02 22.03 С 8 н/о н/о +36.9 -0.2 10 +33 +33 жарко 1008.4 942.7
03 22.03 С 9 н/о н/о +38.2 -1.6 8 +34 +34 очень
жарко
1007.5 941.9
04 22.03 С 7 40 км 3/1
[Cu hum Ac lent Ci sp]
+38.9 -0.8 8 +35 +35 очень
жарко
1006.4 940.8
05 22.03 СВ 5 н/о н/о +39.7 -1.3 8 +36 +36 очень
жарко
1005.3 939.8
06 22.03 СЗ 5 н/о н/о +39.7 -3.4 7 +36 +36 очень
жарко
1004.8 939.3
07 22.03 С 3 40 км 4/4
[Cu hum Ci sp]
+39.6 -0.6 8 +36 +36 очень
жарко
1004.5 939.1
08 22.03 СВ 3 н/о н/о +39.1 -0.2 9 +35 +35 очень
жарко
1004.3 938.9
09 22.03 СЗ 2 н/о н/о +38.4 +0.1 9 +35 +35 очень
жарко
1004.7 939.2
10 22.03 С 2 40 км 9/9
[Cu hum]
+36.9 +1.6 11 +33 +33 жарко 1005.1 939.6
11 22.03 С 2 н/о н/о +36.1 +1.2 11 +33 +33 жарко 1005.5 940.0
12 22.03 С 2 н/о н/о +35.1 +4.5 15 +32 +32 жарко 1006.0 940.5
13 22.03 Ю 9 н/о 4/0
[]
+31.6 +3.5 17 +29 +29 жарко 1006.8 941.2 +40.8
14 22.03 Ю 7 н/о н/о +30.1 +3.8 19 +28 +28 жарко 1007.3 941.7
15 22.03 ЮВ 4 н/о н/о +29.1 +4.5 21 +27 +27 жарко 1007.3 941.7
16 22.03 ЮВ 2 н/о 9/0
[]
+27.4 +7.9 29 +27 +27 жарко 1006.9 941.3
17 22.03 ЮВ 3 н/о н/о +26.6 +4.5 24 +26 +26 жарко 1006.6 941.0
18 22.03 ЮВ 3 н/о н/о +25.1 +4.9 27 +25 +25 комфорт 1005.7 940.2
19 22.03 ЮВ 3 40 км 6/0
[Ac trans Cs]
+23.9 +4.6 29 +24 +24 комфорт 1005.5 940.0
20 22.03 ЮВ 3 н/о н/о +24.0 +5.1 29 +24 +24 комфорт 1005.3 939.8
21 22.03 ЮВ 3 н/о н/о +24.1 +5.0 29 +24 +24 комфорт 1005.7 940.2
22 22.03 ЮВ 3 40 км 3/0
[Ac cast Cs]
+24.5 +4.8 28 +24 +24 комфорт 1005.9 940.5
23 22.03 ЮВ 3 н/о н/о +26.7 +4.4 24 +26 +26 жарко 1006.5 940.9
00 23.03 штиль 0 н/о н/о +30.7 +5.4 20 +29 +29 жарко 1006.9 941.3
01 23.03 ЮВ 3 40 км 4/0
[As trans Cs]
+33.9 +1.3 13 +31 +31 жарко 1006.9 941.3 +22.1
02 23.03 С 4 н/о н/о +37.5 -0.3 9 +34 +34 очень
жарко
1006.4 940.8
03 23.03 СЗ 3 н/о н/о +37.8 +0.2 9 +34 +34 очень
жарко
1005.7 940.2
04 23.03 С 6 40 км 1/1
[Cu hum Ci fib]
+38.4 -1.9 8 +34 +34 очень
жарко
1004.9 939.4
05 23.03 С 5 н/о н/о +38.6 -3.3 7 +34 +34 очень
жарко
1004.0 938.6
06 23.03 С 3 н/о н/о +39.1 -0.1 9 +35 +35 очень
жарко
1003.6 938.2
07 23.03 Ю 4 40 км 4/3
[Cu hum Ac trans Cc]
+38.2 -0.5 9 +34 +34 очень
жарко
1003.3 937.9
08 23.03 Ю 6 н/о н/о +38.6 -0.2 9 +35 +35 очень
жарко
1003.3 937.9
09 23.03 Ю 5 н/о н/о +37.2 -0.6 9 +33 +33 жарко 1003.5 938.1
10 23.03 Ю 8 40 км 1/0
[Ac As Cs]
+35.1 +1.1 12 +32 +32 жарко 1004.1 938.7
11 23.03 Ю 8 н/о н/о +33.1 +4.4 17 +31 +31 жарко 1004.9 939.4
12 23.03 Ю 11 н/о н/о +31.3 +7.1 22 +30 +30 жарко 1006.0 940.5
13 23.03 ЮВ 10 н/о н/о +29.9 +7.8 25 +29 +29 жарко 1006.7 941.1 +41.4
14 23.03 ЮВ 9 н/о н/о +28.7 +7.9 27 +28 +28 жарко 1006.7 941.1
15 23.03 ЮВ 8 н/о н/о +27.9 +8.5 30 +28 +28 жарко 1006.7 941.1
16 23.03 ЮВ 8 н/о 6/0
[]
+27.3 +7.8 29 +27 +27 жарко 1006.3 940.7
17 23.03 ЮВ 8 н/о н/о +26.9 +7.9 30 +27 +27 жарко 1005.7 940.2
18 23.03 ЮВ 7 н/о н/о +26.3 +8.0 31 +26 +26 жарко 1005.1 939.6
19 23.03 ЮВ 6 40 км 5/0
[Ac trans Cs]
+25.3 +8.5 34 +26 +26 жарко 1004.9 939.4
20 23.03 ЮВ 6 н/о н/о +24.7 +8.6 36 +25 +25 комфорт 1005.4 939.9
21 23.03 ЮВ 5 н/о н/о +24.4 +8.7 37 +25 +25 комфорт 1006.0 940.5
22 23.03 ЮВ 5 40 км 6/0
[Ac As Cs]
+23.8 +8.5 38 +24 +24 комфорт 1006.5 940.9
23 23.03 ЮВ 5 н/о н/о +26.1 +8.2 32 +26 +26 жарко 1007.1 941.5
00 24.03 ЮВ 7 н/о н/о +29.2 +8.5 27 +29 +29 жарко 1007.8 942.2
01 24.03 ЮВ 6 40 км 8/1
[Cu hum Ac As Cs]
+30.6 +8.7 26 +30 +30 жарко 1007.7 942.0 +23.8
02 24.03 ЮВ 6 н/о н/о +32.1 +9.1 24 +31 +31 жарко 1007.0 941.4
03 24.03 ЮВ 5 н/о н/о +34.3 +8.9 21 +33 +33 жарко 1005.9 940.4
04 24.03 Ю 6 40 км 9/1
[Cu hum Ac As Cs]
+36.0 +8.9 19 +34 +34 очень
жарко
1005.0 939.5
05 24.03 Ю 7 н/о н/о +36.6 +8.9 19 +35 +35 очень
жарко
1003.9 938.5
06 24.03 Ю 8 н/о н/о +36.3 +8.6 18 +34 +34 очень
жарко
1003.5 938.1
07 24.03 Ю 9 40 км 9/3
[Cu med, cong Ac cast]
+34.5 +8.7 21 +33 +33 жарко 1003.7 938.3
08 24.03 Ю 9 н/о н/о +33.7 +7.8 20 +32 +32 жарко 1004.0 938.6
09 24.03 Ю 8 н/о н/о +32.9 +7.2 20 +31 +31 жарко 1004.5 939.1
10 24.03 Ю 8 40 км 9/0
[As op]
+32.2 +7.0 21 +31 +31 жарко 1005.5 940.0
11 24.03 ЮВ 8 н/о н/о +30.9 +9.2 26 +30 +30 жарко 1006.3 940.7
12 24.03 ЮВ 7 н/о н/о +29.0 +11.9 35 +30 +30 жарко 1007.0 941.4
13 24.03 ЮВ 8 н/о 10/0
[]
+28.4 +12.4 37 +30 +30 жарко 1007.9 942.2 +37.5
14 24.03 Ю 7 н/о н/о +27.5 +12.2 39 +29 +29 жарко 1007.9 942.2
15 24.03 ЮВ 8 н/о н/о +26.5 +12.1 41 +28 +28 жарко 1007.7 942.0
16 24.03 ЮВ 8 н/о 8/0
[]
+25.9 +12.0 42 +27 +27 жарко 1007.5 941.9
17 24.03 ЮВ 8 н/о н/о +25.3 +11.8 43 +27 +27 жарко 1007.9 942.2
18 24.03 ЮВ 8 н/о н/о +24.8 +12.2 45 +26 +26 жарко 1007.5 941.9
19 24.03 ЮВ 7 40 км 4/0
[Ac As]
+24.4 +12.1 46 +26 +26 жарко 1007.9 942.2
20 24.03 ЮВ 7 н/о н/о +23.8 +12.2 48 +26 +26 жарко 1008.3 942.6
21 24.03 ЮВ 7 н/о н/о +23.6 +12.3 49 +25 +25 комфорт 1008.9 943.2
22 24.03 ЮВ 7 40 км 4/1 1500 м
[Cu hum Ac As]
+24.1 +12.1 47 +26 +26 жарко 1009.9 944.1
23 24.03 ЮВ 8 н/о н/о +24.5 +12.2 46 +26 +26 жарко 1010.8 944.9
00 25.03 ЮВ 9 н/о н/о +26.1 +11.8 41 +27 +27 жарко 1011.4 945.5
01 25.03 ЮВ 8 40 км 8/1 1500 м
[Cu hum Ac As Ci sp]
+26.9 +11.8 39 +28 +28 жарко 1011.5 945.6 +23.5
02 25.03 ЮВ 8 н/о н/о +28.1 +11.5 36 +29 +29 жарко 1011.3 945.4
03 25.03 ЮВ 7 н/о н/о +29.9 +11.3 32 +30 +30 жарко 1010.9 945.0
04 25.03 Ю 8 40 км 8/1 2000 м
[Cu hum Ac cast Cs]
+31.1 +11.0 29 +31 +31 жарко 1010.1 944.3
05 25.03 ЮВ 8 н/о н/о +30.9 +10.7 29 +31 +31 жарко 1009.7 943.9
06 25.03 ЮВ 7 н/о н/о +32.4 +10.9 27 +32 +32 жарко 1009.6 943.8
07 25.03 ЮВ 8 40 км 8/1 2000 м
[Cu hum Ac cast Cc]
+31.8 +10.6 27 +32 +32 жарко 1009.4 943.6
08 25.03 Ю 8 н/о н/о +30.8 +10.3 28 +31 +31 жарко 1009.8 944.0
09 25.03 Ю 8 н/о н/о +28.9 +10.8 32 +29 +29 жарко 1010.4 944.6
10 25.03 ЮВ 8 40 км 9/0
[Ac cast]
+28.0 +11.1 35 +29 +29 жарко 1011.1 945.2
11 25.03 ЮВ 10 н/о н/о +27.7 +11.6 37 +29 +29 жарко 1011.6 945.7
12 25.03 ЮВ 9 н/о н/о +26.9 +11.3 38 +28 +28 жарко 1012.7 946.7
13 25.03 ЮВ 8 н/о н/о +26.3 +11.6 40 +28 +28 жарко 1013.3 947.3 +33.5
14 25.03 ЮВ 7 н/о н/о +25.7 +11.2 40 +27 +27 жарко 1013.7 947.7
15 25.03 ЮВ 7 н/о н/о +24.8 +9.0 37 +25 +25 комфорт 1013.7 947.7
16 25.03 ЮВ 6 н/о 3/0
[]
+23.9 +9.1 39 +25 +25 комфорт 1013.5 947.5
17 25.03 ЮВ 6 н/о н/о +23.5 +8.8 39 +24 +24 комфорт 1013.6 947.6
18 25.03 ЮВ 7 н/о н/о +22.8 +8.0 39 +24 +24 комфорт 1013.7 947.7
19 25.03 ЮВ 8 40 км 1/0
[Ac trans]
+21.9 +6.9 38 +23 +23 комфорт 1013.7 947.7
20 25.03 ЮВ 7 н/о н/о +21.2 +5.8 37 +22 +22 комфорт 1014.5 948.4
21 25.03 ЮВ 6 н/о н/о +20.5 +5.0 36 +21 +21 комфорт 1015.1 949.0
22 25.03 ЮВ 5 40 км 4/0
[Ac trans Ci sp]
+20.5 +4.5 35 +21 +21 комфорт 1015.7 949.5
23 25.03 ЮВ 6 н/о н/о +22.2 +3.7 30 +22 +22 комфорт 1016.4 950.2
00 26.03 В 8 н/о н/о +22.8 +3.8 29 +23 +23 комфорт 1016.7 950.5
01 26.03 В 6 40 км дым 1/0
[Ci fib]
+25.4 +5.3 27 +25 +25 комфорт 1016.7 950.5 +20.2
02 26.03 В 5 н/о н/о +27.4 +6.1 26 +27 +27 жарко 1016.2 950.0
03 26.03 В 6 н/о н/о +29.3 +5.7 22 +28 +28 жарко 1015.6 949.4
04 26.03 ЮВ 6 40 км 3/0
[Ci sp]
+30.3 +2.7 17 +28 +28 жарко 1014.7 948.6
05 26.03 Ю 6 н/о н/о +31.2 +0.1 14 +28 +28 жарко 1013.7 947.7
06 26.03 В 6 н/о н/о +32.5 -3.8 9 +29 +29 жарко 1012.9 946.9
07 26.03 ЮВ 5 40 км 1/0
[Ci sp]
+32.4 -4.6 9 +29 +29 жарко 1012.6 946.6
08 26.03 ЮВ 5 н/о н/о +31.9 -6.4 8 +28 +28 жарко 1012.9 946.9
09 26.03 ЮВ 5 н/о н/о +31.1 -5.6 9 +27 +27 жарко 1013.0 947.0
10 26.03 ЮВ 5 40 км 1/0
[Ci sp]
+28.8 -5.7 10 +25 +25 комфорт 1013.6 947.6
11 26.03 ЮВ 4 н/о н/о +26.8 -4.2 13 +24 +24 комфорт 1014.7 948.6
12 26.03 ЮВ 5 н/о н/о +26.4 -3.4 14 +24 +24 комфорт 1015.5 949.3
13 26.03 ЮВ 5 н/о н/о +24.8 -1.5 17 +23 +23 комфорт 1015.8 949.6 +33.1
14 26.03 ЮВ 4 н/о н/о +22.7 -0.9 21 +22 +22 комфорт 1015.5 949.3
15 26.03 В 5 н/о н/о +21.7 -1.1 22 +21 +21 комфорт 1015.5 949.3
16 26.03 В 5 н/о н/о +21.1 -0.4 24 +21 +21 комфорт 1015.2 949.1
17 26.03 В 4 н/о н/о +20.5 +0.6 26 +21 +21 комфорт 1015.1 949.0
18 26.03 В 4 н/о н/о +19.2 +1.0 30 +19 +19 1015.0 948.9

 

Местоположение метеостанции Джайлс (Западная Австралия, Австралия): широта -25.03 долгота 128.30 высота над уровнем моря 599 м.

В архиве по умолчанию представлена погода в Джайлсе за последнюю неделю. Архивные данные за месяц целиком и за предыдущие месяцы, начиная с января 2011 года, Вы можете получить, выбрав интересующий диапазон дат из раскрывающегося списка и нажав кнопку "Ввод!".


*Определитесь, кто Вы:
робот инопланетянин человек

Внимание! Время в таблицах - всемирное. Для получения местного времени необходимо прибавить поправку, которая равна 8 ч.

Смотрите также архив погоды в соседних городах и на ближайших метеорологических станциях:

Погода в Уорбертоне (Западная Австралия, Австралия) (212 км)
Погода в Кинторе (Северная территория, Австралия) (224 км)
Погода в Юларе (Северная территория, Австралия) (271 км)
Погода в Эрнабелле (Южная Австралия, Австралия) (413 км)
Погода в Раббит Флат (Северная территория, Австралия) (568 км)
Погода в Элис-Спрингсе (Северная территория, Австралия) (581 км)
Погода на Виноградной ферма (Северная территория, Австралия) (614 км)
Погода в Форресте (Западная Австралия, Австралия) (645 км)
Погода в Лавертоне (Западная Австралия, Австралия) (707 км)
Погода в Телфере (Западная Австралия, Австралия) (723 км)

Пояснения к столбцам:

Ветер - указаны скорость ветра в м/с - средняя за 10 мин, порывы в срок и между сроками (в фигурных скобках) и направление, откуда дует ветер: С - северный, СВ - северо-восточный, В - восточный, ЮВ - юго-восточный, Ю - южный, ЮЗ - юго-западный, З - западный, СЗ - северо-западный.
Видимость - горизонтальная дальность видимости в метрах или километрах. При видимости от 1 до 10 км при отсутствии осадков обычно наблюдается дымка, при ухудшении видимости до 1 км и менее - туман. В сухую погоду видимость может ухудшаться дымом, пылью или мглою.
Явления - указаны атмосферные явления, наблюдавшиеся в срок или в последний час перед сроком; фигурными скобками обозначены явления, наблюдавшиеся между сроками (за 1-3 часа до срока); квадратными скобками обозначены град или гололедные отложения с указанием их диаметра в мм.
Облачность - указаны через наклонную черту общая и нижняя облачность в баллах и высота нижней границы облаков в метрах; квадратными скобками обозначены формы облаков: Ci - перистые, Cs - перисто-слоистые, Cc - перисто-кучевые, Ac - высококучевые, As - высокослоистые, Sc - слоисто-кучевые, Ns - слоисто-дождевые, Cu - кучевые, Cb - кучево-дождевые. Подробнее классификацию облаков см. в Атласе облаков (PDF).
T - Температура воздуха - температура, измеренная на высоте 2 м над землей.
Td - Температура точки росы - температура, при понижении до которой содержащийся в воздухе водяной пар достигнет насыщения.
f - Относительная влажность воздуха - влажноcть воздуха, измеренная на высоте 2 м над землей.
Te - Эффективная температура - температура, которую ощущает одетый по сезону человек в тени. Характеристика душности погоды. При расчете учитывается влияние влажности воздуха и скорости ветра на теплоощущения человека.
Tes - Эффективная температура на солнце - температура, которую ощущает человек, с поправкой на солнечный нагрев. Характеристика знойности погоды. Зависит от высоты солнца над горизонтом, облачности и скорости ветра. Ночью, в пасмурную погоду, а также при ветре 12 м/с и более поправка равна нулю.
P - Атмосферное давление - приведенное к уровню моря атмосферное давление.
Po - Атмосферное давление - измеренное на уровне метеостанции атмосферное давление.
Tmin - Минимальная температура - минимум температуры воздуха на высоте 2 м над землей.
Tmax - Максимальная температура - максимум температуры воздуха на высоте 2 м над землей.
R - Количество осадков - Количество выпавших осадков за период времени, мм. При наведении курсора мыши на число - период времени, за который выпало указанное количество осадков.
R24 - Количество осадков - Количество выпавших осадков за 24 часа, мм.
S - Снежный покров - Высота снежного покрова, см. При наведении курсора мыши на число - состояние снежного покрова и степень покрытия местности в баллах.